{"data":{"norad_id":66445,"epoch":"2026-05-24T12:19:23.236896Z","epoch_age_seconds":107266,"freshness":"FRESH","line1":"1 66445U 25259Z   26144.51346339  .00011418  00000+0  42367-3 0  9998","line2":"2 66445  42.9995 206.4661 0001678 275.5816  84.4845 15.27591272 30979","mean_motion":15.275912720000001,"eccentricity":0.0001678,"inclination_deg":42.9995,"raan_deg":206.4661,"arg_perigee_deg":275.5816,"mean_anomaly_deg":84.4845,"bstar":0.00042367,"rev_number":3097,"period_min":94.266053125237,"perigee_km":481.86404246083,"apogee_km":484.16664518741,"semimajor_km":6861.1523438241,"source":"CELESTRAK","updated_at":"2026-05-25T13:38:21.212095Z"}}